Location: Coopersdale
(40.3556°N, 78.9372°W)
Time: 09:22:26
(UTC+00:00)

Envisat - Pass Details

Date: 04 December 2020
Orbit: 764 x 766 km, 98.1° (Epoch: 15 January)

Event Time Altitude Azimuth Distance (km) Brightness Sun altitude
Rises 11:48:08 0° 5° (N) 3,241 6.0 -6.8°
Reaches altitude 10° 11:50:33 10° 358° (N) 2,310 5.2 -6.3°
Maximum altitude 11:55:18 41° 290° (WNW) 1,106 3.4 -5.5°
Drops below altitude 10° 12:00:00 10° 221° (SW) 2,295 5.3 -4.7°
Sets 12:02:24 0° 214° (SW) 3,217 6.1 -4.3°
